HST 1 20580U 90037B 25349.92697688 .00005667 00000+0 19308-3 0 9999 2 20580 28.4681 250.7951 0001830 280.0887 79.9502 15.28099791760488 POLAR 1 23802U 96013A 25340.48239671 .00000144 00000+0 00000+0 0 9995 2 23802 79.6240 229.2201 6278774 215.5988 78.9527 1.29846135142354 SWAS 1 25560U 98071A 25349.91498361 .00003280 00000+0 21941-3 0 9999 2 25560 69.8969 339.6095 0006477 211.7942 148.2831 15.07979081469623 CXO 1 25867U 99040B 25351.90728450 .00000514 00000+0 00000+0 0 9999 2 25867 53.1169 122.3471 8128116 310.8350 0.1965 0.37801682 16634 XMM-NEWTON 1 25989U 99066A 25350.85504937 .00000039 00000+0 00000+0 0 9999 2 25989 65.4114 285.3948 4740682 68.0923 0.1860 0.50133942 22099 TERRA 1 25994U 99068A 25349.90600187 .00000462 00000+0 10357-3 0 9995 2 25994 97.9746 41.4743 0003602 88.3629 84.4744 14.60905450382843 CLUSTER II-FM7 (SAMBA) 1 26410U 00041A 25350.13450001 .00003337 00000+0 00000+0 0 9991 2 26410 147.6610 25.4775 8760679 241.2157 359.9561 0.44829777 19494 CLUSTER II-FM8 (TANGO) 1 26464U 00045B 25351.02153735 .00003590 00000+0 00000+0 0 9998 2 26464 147.9677 26.1815 8769138 241.7941 359.9664 0.44419529 19491 ODIN 1 26702U 01007A 25349.80410629 .00024161 00000+0 40965-3 0 9998 2 26702 97.4220 17.8262 0005224 100.7138 259.4703 15.51499813360805 TIMED 1 26998U 01055B 25349.85684069 .00001351 00000+0 12807-3 0 9994 2 26998 74.0689 244.0000 0000890 213.6432 146.4695 14.94702250303429 CORIOLIS 1 27640U 03001A 25349.91377425 .00000154 00000+0 93249-4 0 9994 2 27640 98.7141 354.5982 0014443 24.9296 335.2576 14.19873456188214 SORCE 1 27651U 03004A 25349.96183156 .00002876 00000+0 22447-3 0 9994 2 27651 39.9900 226.0600 0016436 179.0710 181.0116 15.02312411244327 MOST 1 27843U 03031D 25349.89531407 .00000107 00000+0 69281-4 0 9998 2 27843 98.7066 355.1722 0010832 64.6197 295.6100 14.21271201164672 SCISAT 1 1 27858U 03036A 25349.93336741 .00000701 00000+0 94822-4 0 9997 2 27858 73.9284 175.3692 0008566 279.2498 80.7709 14.81123836204312 SWIFT 1 28485U 04047A 25349.89121940 .00029488 00000+0 47822-3 0 9995 2 28485 20.5525 140.8275 0003659 323.2618 36.7573 15.50776514158201 HINODE (SOLAR-B) 1 29479U 06041A 25349.96070578 .00000690 00000+0 12772-3 0 9993 2 29479 98.0648 3.7577 0018267 145.9911 214.2469 14.68307626 27988 SHIJIAN-6 02A (SJ-6 02A) 1 29505U 06046A 25350.02927852 .00005722 00000+0 31584-3 0 9996 2 29505 97.6628 24.7928 0004660 62.8164 297.3542 15.14337491 44521 SHIJIAN-6 02B (SJ-6 02B) 1 29506U 06046B 25350.02209769 .00001867 00000+0 15251-3 0 9996 2 29506 97.6890 15.5715 0013810 327.0115 33.0246 15.00547702 43263 FGRST (GLAST) 1 33053U 08029A 25349.81723616 .00003366 00000+0 12675-3 0 9991 2 33053 25.5837 36.5438 0008048 326.9041 33.0993 15.22620076967842 SDO 1 36395U 10005A 25349.28100292 -.00000072 00000+0 00000+0 0 9997 2 36395 34.2668 89.1475 0001041 146.8167 207.3852 1.00270180 58212 CRYOSAT 2 1 36508U 10013A 25349.96108415 .00000120 00000+0 29128-4 0 9992 2 36508 92.0258 232.9499 0002382 95.0086 265.1393 14.51903859831490 X-SAT 1 37389U 11015C 25349.98504150 .00000418 00000+0 19517-3 0 9991 2 37389 98.3309 330.9613 0014326 156.4455 203.7385 14.25131931761580 GCOM-W1 (SHIZUKU) 1 38337U 12025A 25349.82099214 .00000650 00000+0 15424-3 0 9991 2 38337 98.2216 287.9886 0001397 68.3217 345.9303 14.57130054722333 NUSTAR 1 38358U 12031A 25350.00003472 .00008063 00000+0 47466-3 0 9991 2 38358 6.0275 325.9848 0009343 267.4263 349.6121 15.06446396 1301 NEOSSAT 1 39089U 13009D 25349.51075004 .00000220 00000+0 90743-4 0 9997 2 39089 98.4074 168.9716 0012100 75.5967 284.6561 14.35732000670385 BRITE-AUSTRIA 1 39091U 13009F 25349.94840823 .00000217 00000+0 88531-4 0 9994 2 39091 98.3887 168.9861 0011285 69.6569 290.5829 14.36437726670746 IRIS 1 39197U 13033A 25349.96690466 .00001687 00000+0 20182-3 0 9995 2 39197 97.9390 184.7443 0024188 195.6029 164.4443 14.85294302673172 HISAKI (SPRINT-A) 1 39253U 13049A 25349.88895988 .00000115 00000+0 69196-4 0 9996 2 39253 29.7208 71.8910 0136978 330.8637 28.4348 13.55521803606534 CASSIOPE 1 39265U 13055A 25349.94717791 .00036954 -27921-6 48992-3 0 9997 2 39265 80.9208 287.0934 0340506 314.6767 42.7161 15.11763214639852 STSAT-3 1 39422U 13066G 25349.92467931 .00003675 00000+0 28893-3 0 9993 2 39422 97.6003 318.2282 0013520 303.7384 56.2552 15.01409931656692 SWARM B 1 39451U 13067A 25349.87535147 .00003166 00000+0 11810-3 0 9991 2 39451 87.7444 37.9086 0003181 83.5882 276.5729 15.27041050655254 SWARM A 1 39452U 13067B 25349.86055872 .00009483 00000+0 19005-3 0 9995 2 39452 87.3361 124.1141 0002246 90.5818 269.5698 15.46553944677878 SWARM C 1 39453U 13067C 25349.86046786 .00009508 00000+0 19058-3 0 9996 2 39453 87.3359 122.6992 0002236 90.9543 269.1972 15.46552500677835 BRITE-CA1 (TORONTO) 1 40020U 14033L 25349.83464721 .00001141 00000+0 17999-3 0 9999 2 40020 97.9489 117.4997 0080068 143.2280 217.4457 14.72221229615233 OCO 2 1 40059U 14035A 25349.87593923 .00000535 00000+0 12892-3 0 9997 2 40059 98.2219 288.7879 0001257 97.5539 262.5803 14.57051017609353 BRITE-PL2 (HEWELIUSZ) 1 40119U 14049B 25349.81535452 .00001333 00000+0 13144-3 0 9994 2 40119 97.8993 95.6953 0014271 3.0116 357.1186 14.93670644614067 MMS 1 1 40482U 15011A 25350.00003472 -.00000347 00000+0 00000+0 0 9990 2 40482 69.3193 351.4992 8500304 163.4019 333.9352 0.28432404 1385 MMS 2 1 40483U 15011B 25350.00003472 -.00000347 00000+0 00000+0 0 9991 2 40483 69.3167 351.4898 8501762 163.4185 333.9017 0.28432534 1387 MMS 3 1 40484U 15011C 25350.00003472 -.00000347 00000+0 00000+0 0 9992 2 40484 69.3213 351.5063 8501711 163.4143 333.8974 0.28432495 1302 MMS 4 1 40485U 15011D 25350.00003472 -.00000347 00000+0 00000+0 0 9993 2 40485 69.3209 351.4987 8503021 163.4012 333.9345 0.28432635 1380 ASTROSAT 1 40930U 15052A 25349.27415175 .00001835 00000+0 14344-3 0 9999 2 40930 5.9981 38.7299 0008862 287.1415 72.7743 14.82025032552492 DAMPE 1 41173U 15078A 25349.97386156 .00001801 00000+0 64251-4 0 9996 2 41173 97.4548 349.6358 0012683 14.0733 346.0859 15.30169569556524 PISAT 1 41784U 16059B 25349.95581344 .00001133 00000+0 20212-3 0 9994 2 41784 97.8158 353.3740 0030653 71.7895 288.6643 14.68503316492844 HXMT (HUIYAN) 1 42758U 17034A 25349.82110814 .00003768 00000+0 20101-3 0 9999 2 42758 43.0128 122.5277 0031265 63.5568 296.8483 15.16274965469805 FLYING LAPTOP 1 42831U 17042G 25350.00421785 .00003011 00000+0 24658-3 0 9996 2 42831 97.4236 148.4749 0014852 38.8070 321.4218 14.99935100458980 ZHANGHENG 1-01 (CSES-1) 1 43194U 18015C 25349.96350497 .00007798 00000+0 35356-3 0 9997 2 43194 97.6650 147.1960 0018155 194.1805 165.8923 15.20978515436798 SALSAT 1 46495U 20068K 25349.94064692 .00006472 00000+0 25165-3 0 9997 2 46495 97.8781 337.3859 0009148 216.2619 143.7999 15.26381318287374 IXPE 1 49954U 21121A 25350.00003472 .00009828 00000+0 56247-3 0 9992 2 49954 0.2292 261.0834 0007481 189.2089 340.6988 15.08017021 5681